Cambridge, United Kingdom

7:07 PM BST on June 27, 2017 (GMT +0100)
Cambridge

Weather History for EGSC - February, 2014

Change the Weather History Date:

Thursday, February 20, 2014

  Actual Average Record
Temperature  
Mean Temperature 48 °F -  
Max Temperature 53 °F 48 °F 62 °F (2017)
Min Temperature 44 °F 37 °F 28 °F (2000)
Degree Days  
Heating Degree Days 16    
Moisture  
Dew Point 45 °F    
Average Humidity 83    
Maximum Humidity 94    
Minimum Humidity 67    
Precipitation  
Precipitation 0.00 in - - ()
Sea Level Pressure  
Sea Level Pressure 29.47 in    
Wind  
Wind Speed 14 mph ()    
Max Wind Speed 18 mph    
Max Gust Speed 33 mph    
Visibility 5.7 miles    
Events Rain    
Averages and records for this station are not official NWS values.
T = Trace of Precipitation, MM = Missing Value Source: Averaged Metar Reports

Daily Weather History Graph

Daily Weather History Graph

Search for Another Location

Airport or City:

Trip Planner

Search our weather history database for the weather conditions in past years. The results will help you decide how hot, cold, wet, or windy it might be!

Date:

Astronomy

Feb. 20, 2014 Rise Set
Actual Time 7:04 AM GMT 5:21 PM GMT
Civil Twilight 6:30 AM GMT 5:56 PM GMT
Nautical Twilight 5:50 AM GMT 6:36 PM GMT
Astronomical Twilight 5:11 AM GMT 7:15 PM GMT
Moon 11:48 PM GMT (2/20) 8:55 AM GMT (2/20)
Length of Visible Light 11h 26m
Length of Day
10h 17m
Waning Gibbous, 73% of the Moon is Illuminated
Feb 20
Waning Gibbous
Feb 22
Last Quarter
Mar 1
New
Mar 8
First Quarter
Mar 16
Full

Hourly Weather History & Observations

Time (GMT) Temp. Windchill Dew Point Humidity Pressure Visibility Wind Dir Wind Speed Gust Speed Precip Events Conditions
6:20 AM 51.8 °F - 48.2 °F 88% 29.53 in 6.2 mi South 16.1 mph - N/A   Mostly Cloudy
6:50 AM 51.8 °F - 48.2 °F 88% 29.53 in 6.2 mi South 15.0 mph - N/A   Scattered Clouds
7:20 AM 51.8 °F - 48.2 °F 88% 29.50 in 6.2 mi South 15.0 mph - N/A   Scattered Clouds
7:50 AM 51.8 °F - 48.2 °F 88% 29.50 in 6.2 mi South 17.3 mph - N/A   Mostly Cloudy
8:20 AM 51.8 °F - 48.2 °F 88% 29.50 in 6.2 mi South 16.1 mph - N/A   Mostly Cloudy
8:50 AM 51.8 °F - 48.2 °F 88% 29.50 in 6.2 mi South 13.8 mph - N/A   Mostly Cloudy
9:20 AM 53.6 °F - 48.2 °F 82% 29.47 in 6.2 mi South 16.1 mph - N/A Rain Light Rain
9:50 AM 53.6 °F - 48.2 °F 82% 29.47 in 6.2 mi South 18.4 mph 29.9 mph N/A   Mostly Cloudy
10:20 AM 53.6 °F - 48.2 °F 82% 29.47 in 6.2 mi South 18.4 mph 31.1 mph N/A   Mostly Cloudy
10:50 AM 51.8 °F - 50.0 °F 94% 29.47 in 6.2 mi South 17.3 mph - N/A Rain Light Rain Showers
11:20 AM 51.8 °F - 50.0 °F 94% 29.47 in 6.2 mi South 16.1 mph - N/A Rain Light Rain Showers
11:50 AM 51.8 °F - 50.0 °F 94% 29.44 in 3.7 mi South 15.0 mph - N/A Rain Light Rain Showers
12:20 PM 51.8 °F - 50.0 °F 94% 29.44 in 4.3 mi South 15.0 mph 26.5 mph N/A Rain Light Rain
12:50 PM 51.8 °F - 50.0 °F 94% 29.44 in 6.2 mi SSW 11.5 mph - N/A   Mostly Cloudy
1:20 PM 51.8 °F - 46.4 °F 82% 29.44 in 6.2 mi SSW 12.7 mph - N/A   Mostly Cloudy
1:50 PM 53.6 °F - 46.4 °F 77% 29.44 in 6.2 mi SW 12.7 mph - N/A   Scattered Clouds
2:20 PM 53.6 °F - 46.4 °F 77% 29.44 in 6.2 mi WSW 17.3 mph - N/A   Partly Cloudy
2:50 PM 53.6 °F - 42.8 °F 67% 29.44 in 6.2 mi SW 17.3 mph - N/A   Partly Cloudy
3:20 PM 53.6 °F - 42.8 °F 67% 29.44 in 6.2 mi SW 15.0 mph - N/A   Partly Cloudy
3:50 PM 53.6 °F - 42.8 °F 67% 29.44 in 6.2 mi SW 15.0 mph - N/A   Partly Cloudy
4:20 PM 51.8 °F - 42.8 °F 71% 29.44 in 6.2 mi SW 13.8 mph - N/A   Scattered Clouds
4:50 PM 50.0 °F - 42.8 °F 76% 29.44 in 3.7 mi SW 18.4 mph 33.4 mph N/A Rain Rain Showers
5:20 PM 46.4 °F 40.1 °F 42.8 °F 87% 29.47 in 3.7 mi SSW 15.0 mph - N/A Rain Rain Showers
5:50 PM 46.4 °F 40.4 °F 42.8 °F 87% 29.47 in 3.7 mi SW 13.8 mph - N/A Rain Light Rain Showers
6:20 PM 46.4 °F 40.1 °F 41.0 °F 81% 29.47 in 5.0 mi SW 15.0 mph - N/A   Partly Cloudy
6:50 PM 44.6 °F 37.8 °F 39.2 °F 81% 29.47 in 5.6 mi SW 15.0 mph - N/A   Partly Cloudy
7:20 PM 44.6 °F 38.4 °F 39.2 °F 81% 29.47 in 5.6 mi SW 12.7 mph - N/A   Partly Cloudy
7:50 PM 44.6 °F 38.8 °F 39.2 °F 81% 29.50 in - SW 11.5 mph - N/A   Clear
8:20 PM 44.6 °F 38.8 °F 39.2 °F 81% 29.50 in - SW 11.5 mph - N/A   Clear
8:50 PM 44.6 °F 39.7 °F 39.2 °F 81% 29.50 in - SW 9.2 mph - N/A   Clear